DMSP 5D-2 F11 DEB

Satellite information

Favourite Embed

Satellite Type and Status

DEBRISIN ORBIT

Key statistics

Satellite DMSP 5D-2 F11 DEB at a glance.

Uptime

12274

Days in orbit

Revolutions

≈ 14.3

Per day

Orbit

SSO

Sun Synchronous Orbit

Inclination

98.6

Latest

Satellite identification and parameters

Extended collection of information and parameters for DMSP 5D-2 F11 DEB.

Object identification

Identified? True

Debris? True

Object name: DMSP 5D-2 F11 DEB

International designator: 1991-082V

Object number (NORAD): 28308

Object ID (CCSDS): 28308

Country: UNITED STATES OF AMERICA (US)

Current information (Y/N): Y

RCS size: SMALL

Orbital parameters

Period: 100.761 minutes

Inclination: 98.5921 deg

SMA: 7172.782 km

Apoapsis: 802.966 km

Periapsis: 786.328 km

RAAN: 216.6761 deg

Eccentricy: 0.0011598

Argument of periapsis: 329.4806 deg

Mean anomaly: 184.088 deg

Mean motion: 14.29128531 rev/day

Mean motion (dot): 0.00000893 rev/day2

B* drag term: 0.00036913 1/REarth

Two-line elements (TLE)

Creation date: July 5, 2025, 5:45 p.m.

Reference frame: TEME

Reference center: EARTH

Epoch: July 5, 2025, 1:21 p.m. UTC

TLE line 0: 0 DMSP 5D-2 F11 DEB

TLE line 1: 1 28308U 91082V 25186.55636002 .00000893 00000-0 36913-3 0 9995

TLE line 2: 2 28308 98.5921 216.6761 0011598 329.4806 184.0880 14.29128531 99656

Live tracking on map

Real-time ground track for satellite DMSP 5D-2 F11 DEB.

In-orbit conjunctions

A list of the most updated potential collisions computed for object DMSP 5D-2 F11 DEB.

Target Orbit TCA Probability of collision Miss distance Type
SL-8 R/B LEO 2025-02-19 22:46:34 0.0001142257 138.0 (m) ROCKET BODY
CZ-6A DEB LEO 2025-02-02 02:51:04 0.0001136206 764.0 (m) DEBRIS
ST5-A HEO 2025-01-16 05:52:04 0.000603289 221.0 (m) PAYLOAD
COSMOS 2150 LEO 2024-11-04 08:15:21 0.0001766432 435.0 (m) PAYLOAD

Associated space launch

Military meteorological satellite

DMSP 5D-2 F11 DEB was lifted into orbit during the mission ‘Atlas E | DMSP-5D2 F11’, on board a Atlas E space rocket.

The launch took place on Nov. 28, 1991, 1:23 p.m. from Space Launch Complex 3W.

For more information about the launch, click the button.

Launch to space Atlas E | DMSP-5D2 F11
Atlas E | DMSP-5D2 F11

Agency: N/A

Status: Launch Successful

Launch date: Nov. 28, 1991, 1:23 p.m. UTC

Rocket: Atlas E

Launch pad: Space Launch Complex 3W

Location: Vandenberg SFB, CA, USA

...

Latest news about this satellite

There are no fresh news available about this satellite. Check back as we update our databases every day.


Newsletter sign-up

Weekly statistics, charts and insights to help you stay on top of the space industry.